Time,TemperatureF,DewpointF,PressureIn,WindDirection,WindDirectionDegrees,WindSpeedMPH,WindSpeedGustMPH,Humidity,HourlyPrecipIn,Conditions,Clouds,dailyrainin,SolarRadiationWatts/m^2,SoftwareType,DateUTC
2013-06-18 00:03:00,71.3,69.2,30.03,SSW,213,2.0,2.0,93,0.11,,,0.01,0.00,VWS V14.00,2013-06-18 04:03:00,
2013-06-18 00:04:00,71.3,69.2,30.03,SSW,212,1.0,2.0,93,0.11,,,0.01,0.00,VWS V14.00,2013-06-18 04:04:00,
2013-06-18 00:09:00,71.3,69.2,30.03,WSW,239,1.0,10.0,93,0.09,,,0.01,0.00,VWS V14.00,2013-06-18 04:09:00,
2013-06-18 00:14:00,71.3,69.2,30.03,SW,233,2.0,7.0,93,0.16,,,0.03,0.00,VWS V14.00,2013-06-18 04:14:00,
2013-06-18 00:19:00,71.3,69.2,30.02,WSW,240,5.0,7.0,93,0.11,,,0.03,0.00,VWS V14.00,2013-06-18 04:19:00,
2013-06-18 00:24:00,71.3,69.2,30.02,SSW,209,0.0,6.0,93,0.08,,,0.04,0.00,VWS V14.00,2013-06-18 04:24:00,
2013-06-18 00:29:00,71.1,69.0,30.02,SW,216,0.0,6.0,93,0.09,,,0.05,0.00,VWS V14.00,2013-06-18 04:29:00,
2013-06-18 00:34:00,71.1,69.0,30.01,SW,215,0.0,2.0,93,0.09,,,0.05,0.00,VWS V14.00,2013-06-18 04:34:00,
2013-06-18 00:39:00,71.1,69.0,30.01,SW,220,0.0,2.0,93,0.05,,,0.05,0.00,VWS V14.00,2013-06-18 04:39:00,
2013-06-18 00:44:00,71.1,69.0,30.01,SW,215,0.0,0.0,93,0.04,,,0.05,0.00,VWS V14.00,2013-06-18 04:44:00,
2013-06-18 00:49:00,71.1,69.0,30.00,SW,227,0.0,0.0,93,0.00,,,0.05,0.00,VWS V14.00,2013-06-18 04:49:00,
2013-06-18 00:54:00,71.1,69.0,30.00,SSW,202,0.0,0.0,93,0.00,,,0.05,0.00,VWS V14.00,2013-06-18 04:54:00,
2013-06-18 00:59:00,71.1,69.0,30.00,SSW,213,1.0,5.0,93,0.00,,,0.05,0.00,VWS V14.00,2013-06-18 04:59:00,
2013-06-18 01:04:00,71.1,69.0,29.99,SW,216,0.0,0.0,93,0.00,,,0.06,0.00,VWS V14.00,2013-06-18 05:04:00,
2013-06-18 01:09:00,70.9,68.8,29.99,South,181,0.0,1.0,93,0.00,,,0.06,0.00,VWS V14.00,2013-06-18 05:09:00,
2013-06-18 01:14:00,70.9,68.8,29.99,SW,217,0.0,3.0,93,0.00,,,0.06,0.00,VWS V14.00,2013-06-18 05:14:00,
2013-06-18 01:19:00,70.9,68.8,29.98,South,181,0.0,3.0,93,0.00,,,0.06,0.00,VWS V14.00,2013-06-18 05:19:00,
2013-06-18 01:24:00,70.9,68.8,29.98,SSW,193,0.0,1.0,93,0.00,,,0.06,0.00,VWS V14.00,2013-06-18 05:24:00,
2013-06-18 01:29:00,70.9,68.8,29.98,East,79,0.0,3.0,93,0.00,,,0.06,0.00,VWS V14.00,2013-06-18 05:29:00,
2013-06-18 01:34:00,70.9,68.8,29.97,SSW,203,0.0,1.0,93,0.00,,,0.06,0.00,VWS V14.00,2013-06-18 05:34:00,
2013-06-18 01:39:00,70.9,68.8,29.97,SSW,203,0.0,6.0,93,0.00,,,0.06,0.00,VWS V14.00,2013-06-18 05:39:00,
2013-06-18 01:44:00,70.9,68.8,29.97,WSW,256,6.0,6.0,93,0.00,,,0.06,0.00,VWS V14.00,2013-06-18 05:44:00,
2013-06-18 01:49:00,70.8,68.7,29.97,SSW,198,2.0,8.0,93,0.00,,,0.06,0.00,VWS V14.00,2013-06-18 05:49:00,
2013-06-18 01:54:00,70.8,68.7,29.97,SSW,200,0.0,5.0,93,0.00,,,0.06,0.00,VWS V14.00,2013-06-18 05:54:00,
2013-06-18 01:59:00,70.6,68.5,29.97,SSW,195,0.0,5.0,93,0.00,,,0.06,0.00,VWS V14.00,2013-06-18 05:59:00,
2013-06-18 02:04:00,70.6,68.5,29.95,South,189,0.0,2.0,93,0.00,,,0.06,0.00,VWS V14.00,2013-06-18 06:04:00,
2013-06-18 02:09:00,70.4,68.3,29.95,SW,215,0.0,6.0,93,0.00,,,0.06,0.00,VWS V14.00,2013-06-18 06:09:00,
2013-06-18 02:14:00,70.4,68.3,29.95,SSW,199,0.0,3.0,93,0.00,,,0.06,0.00,VWS V14.00,2013-06-18 06:14:00,
2013-06-18 02:19:00,70.3,68.2,29.95,SSW,199,0.0,3.0,93,0.00,,,0.06,0.00,VWS V14.00,2013-06-18 06:19:00,
2013-06-18 02:24:00,70.3,68.2,29.95,SSW,199,0.0,0.0,93,0.00,,,0.06,0.00,VWS V14.00,2013-06-18 06:24:00,
2013-06-18 02:29:00,70.3,68.2,29.95,SW,226,1.0,6.0,93,0.00,,,0.06,0.00,VWS V14.00,2013-06-18 06:29:00,
2013-06-18 02:34:00,70.3,68.5,29.95,SW,227,0.0,3.0,94,0.00,,,0.06,0.00,VWS V14.00,2013-06-18 06:34:00,
2013-06-18 02:39:00,70.3,68.5,29.95,SW,227,0.0,3.0,94,0.00,,,0.06,0.00,VWS V14.00,2013-06-18 06:39:00,
2013-06-18 02:44:00,70.3,68.5,29.95,SW,227,0.0,2.0,94,0.00,,,0.06,0.00,VWS V14.00,2013-06-18 06:44:00,
2013-06-18 02:49:00,70.3,68.5,29.94,SW,223,0.0,2.0,94,0.00,,,0.06,0.00,VWS V14.00,2013-06-18 06:49:00,
2013-06-18 02:54:00,70.1,68.3,29.94,SW,223,0.0,0.0,94,0.00,,,0.06,0.00,VWS V14.00,2013-06-18 06:54:00,
2013-06-18 02:59:00,70.1,68.3,29.94,SW,223,0.0,0.0,94,0.00,,,0.06,0.00,VWS V14.00,2013-06-18 06:59:00,
2013-06-18 03:04:00,70.1,68.3,29.94,SW,223,0.0,3.0,94,0.00,,,0.06,0.00,VWS V14.00,2013-06-18 07:04:00,
2013-06-18 03:09:00,69.9,68.1,29.94,SSW,209,2.0,5.0,94,0.00,,,0.06,0.00,VWS V14.00,2013-06-18 07:09:00,
2013-06-18 03:14:00,69.9,68.1,29.94,SSW,209,2.0,2.0,94,0.00,,,0.06,0.00,VWS V14.00,2013-06-18 07:14:00,
2013-06-18 03:19:00,69.9,68.1,29.94,SW,217,0.0,3.0,94,0.00,,,0.06,0.00,VWS V14.00,2013-06-18 07:19:00,
2013-06-18 03:24:00,69.9,68.1,29.94,SW,217,0.0,0.0,94,0.00,,,0.06,0.00,VWS V14.00,2013-06-18 07:24:00,
2013-06-18 03:29:00,69.9,68.1,29.94,SW,217,0.0,0.0,94,0.00,,,0.06,0.00,VWS V14.00,2013-06-18 07:29:00,
2013-06-18 03:34:00,69.8,68.0,29.94,SW,217,0.0,0.0,94,0.00,,,0.06,0.00,VWS V14.00,2013-06-18 07:34:00,
2013-06-18 03:39:00,69.8,68.0,29.94,SW,217,0.0,0.0,94,0.00,,,0.06,0.00,VWS V14.00,2013-06-18 07:39:00,
2013-06-18 03:44:00,69.8,68.0,29.94,SW,222,0.0,2.0,94,0.00,,,0.06,0.00,VWS V14.00,2013-06-18 07:44:00,
2013-06-18 03:49:00,69.8,68.0,29.94,SW,222,0.0,2.0,94,0.00,,,0.06,0.00,VWS V14.00,2013-06-18 07:49:00,
2013-06-18 03:54:00,69.8,68.0,29.94,SW,222,1.0,1.0,94,0.00,,,0.06,0.00,VWS V14.00,2013-06-18 07:54:00,
2013-06-18 03:59:00,69.8,68.0,29.94,SW,223,4.0,6.0,94,0.00,,,0.06,0.00,VWS V14.00,2013-06-18 07:59:00,
2013-06-18 04:04:00,69.8,68.0,29.94,SSW,213,0.0,3.0,94,0.00,,,0.06,0.00,VWS V14.00,2013-06-18 08:04:00,
2013-06-18 04:09:00,69.8,68.0,29.94,SW,215,0.0,3.0,94,0.00,,,0.06,0.00,VWS V14.00,2013-06-18 08:09:00,
2013-06-18 04:14:00,69.8,68.0,29.94,SW,215,0.0,1.0,94,0.00,,,0.06,0.00,VWS V14.00,2013-06-18 08:14:00,
2013-06-18 04:19:00,69.8,68.0,29.95,SSW,213,0.0,1.0,94,0.00,,,0.06,0.00,VWS V14.00,2013-06-18 08:19:00,
2013-06-18 04:24:00,69.8,68.0,29.95,SSW,213,0.0,0.0,94,0.00,,,0.06,0.00,VWS V14.00,2013-06-18 08:24:00,
2013-06-18 04:29:00,69.8,68.0,29.95,SSW,213,0.0,0.0,94,0.00,,,0.06,0.00,VWS V14.00,2013-06-18 08:29:00,
2013-06-18 04:34:00,69.8,68.0,29.95,WSW,237,0.0,5.0,94,0.00,,,0.06,0.00,VWS V14.00,2013-06-18 08:34:00,
2013-06-18 04:39:00,69.8,68.0,29.95,WSW,239,1.0,5.0,94,0.00,,,0.06,0.00,VWS V14.00,2013-06-18 08:39:00,
2013-06-18 04:44:00,69.8,68.0,29.95,SSW,209,0.0,1.0,94,0.00,,,0.06,0.00,VWS V14.00,2013-06-18 08:44:00,
2013-06-18 04:49:00,69.8,68.0,29.95,WSW,241,3.0,5.0,94,0.00,,,0.06,0.00,VWS V14.00,2013-06-18 08:49:00,
2013-06-18 04:54:00,69.8,68.0,29.95,WSW,244,5.0,5.0,94,0.00,,,0.06,0.00,VWS V14.00,2013-06-18 08:54:00,
2013-06-18 04:59:00,69.8,68.0,29.95,SW,234,0.0,5.0,94,0.00,,,0.06,0.00,VWS V14.00,2013-06-18 08:59:00,
2013-06-18 05:04:00,69.8,68.0,29.95,SW,227,0.0,0.0,94,0.00,,,0.06,0.00,VWS V14.00,2013-06-18 09:04:00,
2013-06-18 05:09:00,69.6,67.8,29.95,SW,230,0.0,3.0,94,0.00,,,0.06,0.00,VWS V14.00,2013-06-18 09:09:00,
2013-06-18 05:14:00,69.6,67.8,29.95,SW,230,0.0,3.0,94,0.00,,,0.06,0.00,VWS V14.00,2013-06-18 09:14:00,
2013-06-18 05:19:00,69.6,67.8,29.95,SW,230,0.0,3.0,94,0.00,,,0.06,0.00,VWS V14.00,2013-06-18 09:19:00,
2013-06-18 05:24:00,69.6,67.8,29.95,SW,230,0.0,0.0,94,0.00,,,0.06,0.00,VWS V14.00,2013-06-18 09:24:00,
2013-06-18 05:29:00,69.6,67.8,29.95,SW,230,0.0,0.0,94,0.00,,,0.06,0.00,VWS V14.00,2013-06-18 09:29:00,
2013-06-18 05:34:00,69.4,67.6,29.95,SW,230,0.0,0.0,94,0.00,,,0.06,0.00,VWS V14.00,2013-06-18 09:34:00,
2013-06-18 05:39:00,69.4,67.6,29.95,SW,236,1.0,5.0,94,0.00,,,0.06,0.00,VWS V14.00,2013-06-18 09:39:00,
2013-06-18 05:44:00,69.4,67.6,29.95,SW,236,1.0,2.0,94,0.00,,,0.06,0.00,VWS V14.00,2013-06-18 09:44:00,
2013-06-18 05:49:00,69.3,67.5,29.96,SW,229,0.0,4.0,94,0.00,,,0.06,0.00,VWS V14.00,2013-06-18 09:49:00,
2013-06-18 05:54:00,69.3,67.5,29.96,SW,229,0.0,0.0,94,0.00,,,0.06,0.00,VWS V14.00,2013-06-18 09:54:00,
2013-06-18 05:59:00,69.1,67.3,29.96,SSW,199,0.0,2.0,94,0.00,,,0.06,0.00,VWS V14.00,2013-06-18 09:59:00,
2013-06-18 06:04:00,69.1,67.3,29.96,SSW,199,0.0,0.0,94,0.00,,,0.06,0.00,VWS V14.00,2013-06-18 10:04:00,
2013-06-18 06:09:00,69.1,67.3,29.96,SSW,200,0.0,1.0,94,0.00,,,0.06,5.00,VWS V14.00,2013-06-18 10:09:00,
2013-06-18 06:14:00,68.9,67.1,29.96,SW,227,1.0,3.0,94,0.00,,,0.06,5.00,VWS V14.00,2013-06-18 10:14:00,
2013-06-18 06:19:00,68.9,67.1,29.97,SW,229,0.0,3.0,94,0.00,,,0.06,5.00,VWS V14.00,2013-06-18 10:19:00,
2013-06-18 06:24:00,68.9,67.1,29.97,SW,229,0.0,2.0,94,0.00,,,0.06,9.00,VWS V14.00,2013-06-18 10:24:00,
2013-06-18 06:29:00,68.8,67.0,29.97,SW,236,0.0,3.0,94,0.00,,,0.06,12.00,VWS V14.00,2013-06-18 10:29:00,
2013-06-18 06:34:00,68.8,67.0,29.97,SW,233,0.0,0.0,94,0.00,,,0.06,19.00,VWS V14.00,2013-06-18 10:34:00,
2013-06-18 06:39:00,68.8,67.0,29.97,SW,233,0.0,0.0,94,0.00,,,0.06,26.00,VWS V14.00,2013-06-18 10:39:00,
2013-06-18 06:44:00,68.8,67.0,29.97,SW,233,0.0,0.0,94,0.00,,,0.07,30.00,VWS V14.00,2013-06-18 10:44:00,
2013-06-18 06:49:00,68.9,68.0,29.97,SW,233,0.0,0.0,97,0.00,,,0.07,42.00,VWS V14.00,2013-06-18 10:49:00,
2013-06-18 06:54:00,68.9,68.0,29.97,SW,234,0.0,3.0,97,0.00,,CLR,0.07,62.00,VWS V14.00,2013-06-18 10:54:00,
2013-06-18 06:59:00,68.9,68.0,29.97,SW,233,0.0,3.0,97,0.00,,CLR,0.07,56.00,VWS V14.00,2013-06-18 10:59:00,
2013-06-18 07:04:00,69.1,68.2,29.97,SW,234,0.0,2.0,97,0.00,,CLR,0.07,62.00,VWS V14.00,2013-06-18 11:04:00,
2013-06-18 07:09:00,69.1,68.2,29.97,SW,217,0.0,3.0,97,0.00,,CLR,0.07,65.00,VWS V14.00,2013-06-18 11:09:00,
2013-06-18 07:14:00,69.1,68.2,29.97,SW,234,0.0,5.0,97,0.00,,CLR,0.07,70.00,VWS V14.00,2013-06-18 11:14:00,
2013-06-18 07:19:00,69.1,68.2,29.97,SW,230,0.0,5.0,97,0.00,,CLR,0.07,67.00,VWS V14.00,2013-06-18 11:19:00,
2013-06-18 07:24:00,69.3,68.4,29.97,SSW,208,0.0,3.0,97,0.00,,CLR,0.07,76.00,VWS V14.00,2013-06-18 11:24:00,
2013-06-18 07:29:00,69.3,68.4,29.97,SW,216,0.0,6.0,97,0.00,,CLR,0.07,88.00,VWS V14.00,2013-06-18 11:29:00,
2013-06-18 07:34:00,69.3,68.4,29.97,WSW,244,0.0,6.0,97,0.00,,CLR,0.07,120.00,VWS V14.00,2013-06-18 11:34:00,
2013-06-18 07:39:00,69.4,68.5,29.97,SW,220,0.0,6.0,97,0.00,,CLR,0.07,143.00,VWS V14.00,2013-06-18 11:39:00,
2013-06-18 07:44:00,69.6,68.7,29.97,SW,220,0.0,2.0,97,0.00,,CLR,0.07,107.00,VWS V14.00,2013-06-18 11:44:00,
2013-06-18 07:49:00,69.8,68.9,29.97,SW,227,0.0,3.0,97,0.00,,CLR,0.07,86.00,VWS V14.00,2013-06-18 11:49:00,
2013-06-18 07:54:00,69.9,69.0,29.97,WSW,244,0.0,6.0,97,0.00,,CLR,0.07,114.00,VWS V14.00,2013-06-18 11:54:00,
2013-06-18 07:59:00,69.9,69.0,29.97,SW,236,0.0,6.0,97,0.00,,CLR,0.07,206.00,VWS V14.00,2013-06-18 11:59:00,
2013-06-18 08:04:00,70.3,69.7,29.97,SW,230,0.0,5.0,98,0.00,,SCT030,0.07,160.00,VWS V14.00,2013-06-18 12:04:00,
2013-06-18 08:09:00,70.4,69.8,29.97,SW,227,0.0,5.0,98,0.00,,SCT030,0.07,102.00,VWS V14.00,2013-06-18 12:09:00,
2013-06-18 08:14:00,70.4,69.5,29.97,WSW,246,0.0,7.0,97,0.00,,SCT030,0.07,99.00,VWS V14.00,2013-06-18 12:14:00,
2013-06-18 08:19:00,70.6,69.7,29.98,WSW,243,0.0,7.0,97,0.00,,SCT030,0.07,257.00,VWS V14.00,2013-06-18 12:19:00,
2013-06-18 08:24:00,70.8,69.9,29.98,SW,227,1.0,8.0,97,0.00,,SCT030,0.07,322.00,VWS V14.00,2013-06-18 12:24:00,
2013-06-18 08:29:00,71.1,70.5,29.98,WSW,237,0.0,8.0,98,0.00,,SCT030,0.07,216.00,VWS V14.00,2013-06-18 12:29:00,
2013-06-18 08:34:00,71.3,70.4,29.98,SW,220,1.0,7.0,97,0.00,,SCT030,0.07,162.00,VWS V14.00,2013-06-18 12:34:00,
2013-06-18 08:39:00,71.3,70.4,29.98,WSW,241,0.0,7.0,97,0.00,,SCT030,0.07,102.00,VWS V14.00,2013-06-18 12:39:00,
2013-06-18 08:44:00,71.3,70.4,29.98,SW,233,0.0,6.0,97,0.00,,SCT030,0.07,100.00,VWS V14.00,2013-06-18 12:44:00,
2013-06-18 08:49:00,71.5,70.6,29.99,WSW,240,0.0,6.0,97,0.00,,SCT030,0.07,72.00,VWS V14.00,2013-06-18 12:49:00,
2013-06-18 08:54:00,71.5,70.6,29.99,South,175,0.0,1.0,97,0.00,,SCT030,0.07,74.00,VWS V14.00,2013-06-18 12:54:00,
2013-06-18 08:59:00,71.5,70.6,29.99,WSW,248,0.0,5.0,97,0.00,,SCT030,0.07,104.00,VWS V14.00,2013-06-18 12:59:00,
2013-06-18 09:04:00,71.6,70.7,29.99,WSW,239,0.0,4.0,97,0.00,,BKN030,0.07,130.00,VWS V14.00,2013-06-18 13:04:00,
2013-06-18 09:09:00,71.8,70.9,29.99,SW,224,0.0,4.0,97,0.00,,BKN030,0.07,135.00,VWS V14.00,2013-06-18 13:09:00,
2013-06-18 09:14:00,72.0,71.1,29.99,SSW,213,0.0,3.0,97,0.00,,BKN030,0.07,195.00,VWS V14.00,2013-06-18 13:14:00,
2013-06-18 09:19:00,72.0,71.1,30.00,SW,234,0.0,5.0,97,0.00,,BKN030,0.07,109.00,VWS V14.00,2013-06-18 13:19:00,
2013-06-18 09:24:00,71.8,70.9,30.00,SW,236,2.0,8.0,97,0.00,,OVC030,0.07,62.00,VWS V14.00,2013-06-18 13:24:00,
2013-06-18 09:29:00,71.6,70.7,30.00,SSW,192,0.0,8.0,97,0.00,,OVC030,0.07,88.00,VWS V14.00,2013-06-18 13:29:00,
2013-06-18 09:34:00,71.6,70.7,30.00,SSW,213,3.0,6.0,97,0.00,,OVC030,0.07,151.00,VWS V14.00,2013-06-18 13:34:00,
2013-06-18 09:39:00,71.6,70.7,30.00,SSW,202,0.0,6.0,97,0.00,,OVC030,0.07,202.00,VWS V14.00,2013-06-18 13:39:00,
2013-06-18 09:44:00,72.0,71.1,30.00,SW,222,3.0,4.0,97,0.00,,OVC030,0.07,223.00,VWS V14.00,2013-06-18 13:44:00,
2013-06-18 09:49:00,72.1,71.2,30.00,WSW,243,0.0,4.0,97,0.00,,OVC030,0.07,273.00,VWS V14.00,2013-06-18 13:49:00,
2013-06-18 09:54:00,72.5,71.6,30.00,SW,215,0.0,3.0,97,0.00,,OVC030,0.07,204.00,VWS V14.00,2013-06-18 13:54:00,
2013-06-18 09:59:00,72.5,71.6,30.00,SW,234,3.0,3.0,97,0.00,,OVC030,0.07,160.00,VWS V14.00,2013-06-18 13:59:00,
2013-06-18 10:04:00,72.5,71.3,29.99,SW,227,4.0,7.0,96,0.00,,OVC030,0.07,225.00,VWS V14.00,2013-06-18 14:04:00,
2013-06-18 10:09:00,72.5,71.3,29.99,SW,222,2.0,7.0,96,0.00,,OVC030,0.07,246.00,VWS V14.00,2013-06-18 14:09:00,
2013-06-18 10:14:00,72.7,71.5,29.99,WSW,237,0.0,5.0,96,0.00,,OVC030,0.07,158.00,VWS V14.00,2013-06-18 14:14:00,
2013-06-18 10:19:00,73.0,71.8,29.98,WSW,244,0.0,5.0,96,0.00,,OVC030,0.07,306.00,VWS V14.00,2013-06-18 14:19:00,
2013-06-18 10:24:00,73.2,72.0,29.98,SW,229,0.0,3.0,96,0.00,,OVC030,0.07,285.00,VWS V14.00,2013-06-18 14:24:00,
2013-06-18 10:29:00,73.2,72.0,29.98,SSW,196,0.0,6.0,96,0.00,,OVC030,0.07,248.00,VWS V14.00,2013-06-18 14:29:00,
2013-06-18 10:34:00,73.3,72.1,29.98,WSW,247,2.0,6.0,96,0.00,,OVC030,0.07,199.00,VWS V14.00,2013-06-18 14:34:00,
2013-06-18 10:39:00,73.5,72.3,29.98,SW,217,0.0,6.0,96,0.00,,OVC030,0.07,215.00,VWS V14.00,2013-06-18 14:39:00,
2013-06-18 10:44:00,73.5,72.3,29.98,SW,219,2.0,7.0,96,0.00,,OVC030,0.07,450.00,VWS V14.00,2013-06-18 14:44:00,
2013-06-18 10:49:00,73.7,72.5,29.98,SW,216,3.0,7.0,96,0.00,,OVC030,0.07,276.00,VWS V14.00,2013-06-18 14:49:00,
2013-06-18 10:54:00,74.0,72.8,29.98,SSW,210,6.0,6.0,96,0.00,,OVC030,0.07,366.00,VWS V14.00,2013-06-18 14:54:00,
2013-06-18 10:59:00,74.4,72.9,29.98,SW,234,5.0,8.0,95,0.00,,OVC030,0.07,398.00,VWS V14.00,2013-06-18 14:59:00,
2013-06-18 11:04:00,74.7,73.2,29.98,SW,236,5.0,8.0,95,0.00,,OVC030,0.07,398.00,VWS V14.00,2013-06-18 15:04:00,
2013-06-18 11:09:00,75.3,73.1,29.98,SSW,213,2.0,8.0,93,0.00,,OVC030,0.07,466.00,VWS V14.00,2013-06-18 15:09:00,
2013-06-18 11:14:00,75.6,73.4,29.98,SW,220,0.0,1.0,93,0.00,,OVC030,0.07,257.00,VWS V14.00,2013-06-18 15:14:00,
2013-06-18 11:19:00,75.8,73.3,29.98,SSW,199,0.0,6.0,92,0.00,,OVC030,0.07,135.00,VWS V14.00,2013-06-18 15:19:00,
2013-06-18 11:24:00,76.0,73.2,29.98,SW,236,0.0,3.0,91,0.00,,OVC030,0.07,106.00,VWS V14.00,2013-06-18 15:24:00,
2013-06-18 11:29:00,76.1,73.0,29.98,South,184,0.0,3.0,90,0.00,,OVC030,0.07,137.00,VWS V14.00,2013-06-18 15:29:00,
2013-06-18 11:34:00,76.3,72.8,29.98,SW,224,0.0,2.0,89,0.00,,OVC016,0.07,192.00,VWS V14.00,2013-06-18 15:34:00,
2013-06-18 11:39:00,76.3,72.8,29.98,SSW,209,1.0,3.0,89,0.00,,OVC016,0.07,253.00,VWS V14.00,2013-06-18 15:39:00,
2013-06-18 11:44:00,76.5,72.7,29.98,SE,138,0.0,6.0,88,0.00,,OVC016,0.07,368.00,VWS V14.00,2013-06-18 15:44:00,
2013-06-18 11:49:00,76.7,72.5,29.97,SW,219,0.0,6.0,87,0.00,,OVC016,0.07,322.00,VWS V14.00,2013-06-18 15:49:00,
2013-06-18 11:54:00,77.0,72.8,29.97,SW,219,0.0,6.0,87,0.00,,OVC016,0.07,347.00,VWS V14.00,2013-06-18 15:54:00,
2013-06-18 11:59:00,77.2,72.7,29.97,WSW,240,0.0,7.0,86,0.00,,OVC016,0.07,187.00,VWS V14.00,2013-06-18 15:59:00,
2013-06-18 12:04:00,77.4,72.5,29.97,SW,226,0.0,3.0,85,0.00,,OVC024,0.07,171.00,VWS V14.00,2013-06-18 16:04:00,
2013-06-18 12:09:00,77.6,72.7,29.97,South,191,2.0,6.0,85,0.00,,OVC024,0.07,230.00,VWS V14.00,2013-06-18 16:09:00,
2013-06-18 12:14:00,77.6,72.7,29.97,SW,234,6.0,6.0,85,0.00,,OVC024,0.07,267.00,VWS V14.00,2013-06-18 16:14:00,
2013-06-18 12:19:00,77.7,72.8,29.96,SW,226,2.0,8.0,85,0.00,,OVC024,0.07,299.00,VWS V14.00,2013-06-18 16:19:00,
2013-06-18 12:24:00,77.9,72.7,29.96,SW,224,0.0,5.0,84,0.00,,OVC024,0.07,313.00,VWS V14.00,2013-06-18 16:24:00,
2013-06-18 12:29:00,78.3,73.1,29.96,SW,227,0.0,5.0,84,0.00,,OVC024,0.07,440.00,VWS V14.00,2013-06-18 16:29:00,
2013-06-18 12:34:00,78.5,73.3,29.96,WSW,237,0.0,6.0,84,0.00,,OVC024,0.07,494.00,VWS V14.00,2013-06-18 16:34:00,
2013-06-18 12:39:00,78.8,73.2,29.96,SW,223,3.0,8.0,83,0.00,,OVC024,0.07,398.00,VWS V14.00,2013-06-18 16:39:00,
2013-06-18 12:44:00,79.2,73.6,29.96,SSW,213,2.0,8.0,83,0.00,,OVC024,0.07,473.00,VWS V14.00,2013-06-18 16:44:00,
2013-06-18 12:49:00,79.4,73.4,29.95,SW,236,5.0,10.0,82,0.00,,OVC024,0.07,487.00,VWS V14.00,2013-06-18 16:49:00,
2013-06-18 12:54:00,79.9,73.6,29.95,South,186,0.0,6.0,81,0.00,,OVC024,0.07,456.00,VWS V14.00,2013-06-18 16:54:00,
2013-06-18 12:59:00,80.3,73.6,29.95,WSW,244,0.0,7.0,80,0.00,,OVC024,0.07,475.00,VWS V14.00,2013-06-18 16:59:00,
2013-06-18 13:04:00,80.5,73.0,29.94,SW,224,0.0,10.0,78,0.00,,BKN034,0.07,621.00,VWS V14.00,2013-06-18 17:04:00,
2013-06-18 13:09:00,80.7,73.2,29.94,WSW,239,7.0,10.0,78,0.00,,BKN034,0.07,208.00,VWS V14.00,2013-06-18 17:09:00,
2013-06-18 13:14:00,80.7,73.6,29.94,SW,219,1.0,10.0,79,0.00,,BKN034,0.07,438.00,VWS V14.00,2013-06-18 17:14:00,
2013-06-18 13:19:00,81.1,74.3,29.94,NNE,31,0.0,10.0,80,0.00,,BKN034,0.07,424.00,VWS V14.00,2013-06-18 17:19:00,
2013-06-18 13:24:00,81.1,74.0,29.94,SW,222,0.0,5.0,79,0.00,,BKN034,0.07,241.00,VWS V14.00,2013-06-18 17:24:00,
2013-06-18 13:29:00,81.2,73.3,29.94,SSW,213,1.0,8.0,77,0.00,,BKN034,0.07,396.00,VWS V14.00,2013-06-18 17:29:00,
2013-06-18 13:34:00,81.4,73.9,29.93,SW,232,0.0,5.0,78,0.00,,BKN046,0.07,382.00,VWS V14.00,2013-06-18 17:34:00,
2013-06-18 13:39:00,81.8,75.0,29.93,SSW,195,0.0,5.0,80,0.00,,BKN046,0.07,329.00,VWS V14.00,2013-06-18 17:39:00,
2013-06-18 13:44:00,81.8,73.9,29.93,SW,229,1.0,11.0,77,0.00,,BKN046,0.07,433.00,VWS V14.00,2013-06-18 17:44:00,
2013-06-18 13:49:00,82.2,73.9,29.93,SW,219,0.0,11.0,76,0.00,,BKN046,0.07,1124.00,VWS V14.00,2013-06-18 17:49:00,
2013-06-18 13:54:00,82.8,74.5,29.93,South,188,3.0,10.0,76,0.00,,BKN046,0.07,1137.00,VWS V14.00,2013-06-18 17:54:00,
2013-06-18 13:59:00,83.2,73.7,29.93,WSW,243,0.0,10.0,73,0.00,,BKN046,0.07,1137.00,VWS V14.00,2013-06-18 17:59:00,
2013-06-18 14:04:00,83.4,73.4,29.92,SSW,212,2.0,12.0,72,0.00,,BKN070,0.07,278.00,VWS V14.00,2013-06-18 18:04:00,
2013-06-18 14:09:00,83.6,74.4,29.92,SSW,202,6.0,12.0,74,0.00,,BKN070,0.07,211.00,VWS V14.00,2013-06-18 18:09:00,
2013-06-18 14:14:00,83.8,74.2,29.92,SW,215,12.0,12.0,73,0.00,,BKN070,0.07,521.00,VWS V14.00,2013-06-18 18:14:00,
2013-06-18 14:19:00,84.1,73.7,29.91,South,185,0.0,12.0,71,0.00,,BKN070,0.07,280.00,VWS V14.00,2013-06-18 18:19:00,
2013-06-18 14:24:00,84.3,73.9,29.91,SW,230,7.0,7.0,71,0.00,,BKN070,0.07,377.00,VWS V14.00,2013-06-18 18:24:00,
2013-06-18 14:29:00,84.7,74.3,29.91,WSW,251,3.0,10.0,71,0.00,,BKN070,0.07,709.00,VWS V14.00,2013-06-18 18:29:00,
2013-06-18 14:34:00,85.1,73.8,29.91,South,186,0.0,8.0,69,0.00,,BKN055,0.07,581.00,VWS V14.00,2013-06-18 18:34:00,
2013-06-18 14:39:00,85.7,74.8,29.91,SW,220,8.0,8.0,70,0.00,,BKN055,0.07,581.00,VWS V14.00,2013-06-18 18:39:00,
2013-06-18 14:44:00,85.9,73.7,29.91,SW,215,3.0,7.0,67,0.00,,BKN055,0.07,438.00,VWS V14.00,2013-06-18 18:44:00,
2013-06-18 14:49:00,86.1,73.9,29.90,WSW,247,0.0,7.0,67,0.00,,BKN055,0.07,155.00,VWS V14.00,2013-06-18 18:49:00,
2013-06-18 14:54:00,85.7,73.9,29.90,West,263,16.0,18.0,68,0.00,,BKN055,0.07,32.00,VWS V14.00,2013-06-18 18:54:00,
2013-06-18 14:59:00,83.8,75.0,29.90,WSW,253,1.0,18.0,75,1.92,,BKN055,0.27,9.00,VWS V14.00,2013-06-18 18:59:00,
2013-06-18 15:04:00,81.8,73.9,29.92,WSW,239,0.0,3.0,77,1.26,,-RA,0.39,7.00,VWS V14.00,2013-06-18 19:04:00,
2013-06-18 15:09:00,80.5,73.4,29.92,SW,229,2.0,8.0,79,0.43,,-RA,0.44,5.00,VWS V14.00,2013-06-18 19:09:00,
2013-06-18 15:14:00,79.4,73.4,29.92,SW,226,1.0,10.0,82,4.80,,-RA,0.53,18.00,VWS V14.00,2013-06-18 19:14:00,
2013-06-18 15:19:00,77.9,72.7,29.92,SW,227,0.0,10.0,84,0.42,,-RA,0.59,58.00,VWS V14.00,2013-06-18 19:19:00,
2013-06-18 15:24:00,77.4,72.9,29.92,SSW,200,0.0,5.0,86,0.18,,-RA,0.60,194.00,VWS V14.00,2013-06-18 19:24:00,
2013-06-18 15:29:00,76.8,73.0,29.92,SSW,213,0.0,7.0,88,0.07,,-RA,0.60,326.00,VWS V14.00,2013-06-18 19:29:00,
2013-06-18 15:34:00,77.0,73.5,29.93,West,261,2.0,5.0,89,0.05,,-RA,0.60,362.00,VWS V14.00,2013-06-18 19:34:00,
2013-06-18 15:39:00,76.7,73.6,29.93,SW,217,3.0,10.0,90,0.00,,-RA,0.60,570.00,VWS V14.00,2013-06-18 19:39:00,
2013-06-18 15:44:00,77.0,74.2,29.93,SSW,196,1.0,8.0,91,0.00,,-RA,0.60,619.00,VWS V14.00,2013-06-18 19:44:00,
2013-06-18 15:49:00,77.0,74.2,29.92,South,175,0.0,8.0,91,0.00,,-RA,0.60,399.00,VWS V14.00,2013-06-18 19:49:00,
2013-06-18 15:54:00,77.4,74.6,29.92,WSW,237,2.0,7.0,91,0.00,,-RA,0.60,839.00,VWS V14.00,2013-06-18 19:54:00,
2013-06-18 15:59:00,77.6,74.4,29.92,SSW,202,3.0,7.0,90,0.00,,-RA,0.60,792.00,VWS V14.00,2013-06-18 19:59:00,
2013-06-18 16:04:00,78.1,74.3,29.91,SW,223,3.0,7.0,88,0.00,,CLR,0.60,774.00,VWS V14.00,2013-06-18 20:04:00,
2013-06-18 16:09:00,78.6,74.1,29.91,WSW,243,9.0,11.0,86,0.00,,CLR,0.60,757.00,VWS V14.00,2013-06-18 20:09:00,
2013-06-18 16:14:00,79.0,72.3,29.91,SW,232,0.0,10.0,80,0.00,,CLR,0.60,753.00,VWS V14.00,2013-06-18 20:14:00,
2013-06-18 16:19:00,79.8,71.9,29.91,WSW,243,3.0,12.0,77,0.00,,CLR,0.60,737.00,VWS V14.00,2013-06-18 20:19:00,
2013-06-18 16:24:00,80.3,72.1,29.91,SSW,209,2.0,8.0,76,0.00,,CLR,0.60,734.00,VWS V14.00,2013-06-18 20:24:00,
2013-06-18 16:29:00,81.1,72.0,29.91,SW,217,6.0,8.0,74,0.00,,CLR,0.60,735.00,VWS V14.00,2013-06-18 20:29:00,
2013-06-18 16:34:00,81.8,72.3,29.90,SW,227,0.0,13.0,73,0.00,,CLR,0.60,679.00,VWS V14.00,2013-06-18 20:34:00,
2013-06-18 16:39:00,82.0,71.3,29.90,SW,219,1.0,13.0,70,0.00,,CLR,0.60,289.00,VWS V14.00,2013-06-18 20:39:00,
2013-06-18 16:44:00,82.2,71.9,29.90,WSW,256,3.0,7.0,71,0.00,,CLR,0.60,361.00,VWS V14.00,2013-06-18 20:44:00,
2013-06-18 16:49:00,82.2,72.3,29.89,South,179,1.0,8.0,72,0.00,,CLR,0.60,524.00,VWS V14.00,2013-06-18 20:49:00,
2013-06-18 16:54:00,82.6,72.2,29.89,West,272,6.0,8.0,71,0.00,,CLR,0.60,236.00,VWS V14.00,2013-06-18 20:54:00,
2013-06-18 16:59:00,82.4,72.1,29.89,WSW,240,2.0,10.0,71,0.00,,CLR,0.60,225.00,VWS V14.00,2013-06-18 20:59:00,
2013-06-18 17:04:00,82.4,72.5,29.89,South,172,5.0,9.0,72,0.00,,SCT070,0.60,262.00,VWS V14.00,2013-06-18 21:04:00,
2013-06-18 17:09:00,82.2,72.3,29.89,SW,233,6.0,9.0,72,0.00,,SCT070,0.60,294.00,VWS V14.00,2013-06-18 21:09:00,
2013-06-18 17:14:00,82.0,72.1,29.89,WSW,256,8.0,13.0,72,0.00,,SCT070,0.60,709.00,VWS V14.00,2013-06-18 21:14:00,
2013-06-18 17:19:00,82.0,72.1,29.88,SW,224,6.0,14.0,72,0.00,,SCT070,0.60,670.00,VWS V14.00,2013-06-18 21:19:00,
2013-06-18 17:24:00,82.2,72.7,29.88,SSW,195,2.0,11.0,73,0.00,,SCT070,0.60,667.00,VWS V14.00,2013-06-18 21:24:00,
2013-06-18 17:29:00,82.4,72.9,29.88,SW,226,5.0,14.0,73,0.00,,SCT070,0.60,632.00,VWS V14.00,2013-06-18 21:29:00,
2013-06-18 17:34:00,82.8,72.0,29.86,WSW,239,6.0,13.0,70,0.00,,SCT070,0.60,554.00,VWS V14.00,2013-06-18 21:34:00,
2013-06-18 17:39:00,83.2,72.0,29.86,West,260,2.0,18.0,69,0.00,,SCT070,0.60,521.00,VWS V14.00,2013-06-18 21:39:00,
2013-06-18 17:44:00,83.2,71.6,29.86,SSW,209,2.0,16.0,68,0.00,,SCT070,0.60,178.00,VWS V14.00,2013-06-18 21:44:00,
2013-06-18 17:49:00,83.0,72.2,29.87,SW,215,8.0,16.0,70,0.00,,SCT070,0.60,195.00,VWS V14.00,2013-06-18 21:49:00,
2013-06-18 17:54:00,82.8,72.4,29.87,SW,230,11.0,17.0,71,0.00,,SCT070,0.60,160.00,VWS V14.00,2013-06-18 21:54:00,
2013-06-18 17:59:00,82.6,72.2,29.87,West,260,6.0,17.0,71,0.00,,SCT070,0.60,157.00,VWS V14.00,2013-06-18 21:59:00,
2013-06-18 18:04:00,82.4,72.5,29.87,WSW,254,3.0,7.0,72,0.00,,FEW022,0.60,90.00,VWS V14.00,2013-06-18 22:04:00,
2013-06-18 18:09:00,82.0,72.5,29.87,WSW,237,5.0,11.0,73,0.00,,FEW022,0.60,150.00,VWS V14.00,2013-06-18 22:09:00,
2013-06-18 18:14:00,81.8,72.3,29.87,WSW,243,2.0,12.0,73,0.00,,FEW022,0.60,72.00,VWS V14.00,2013-06-18 22:14:00,
2013-06-18 18:19:00,81.8,72.3,29.87,WSW,237,6.0,12.0,73,0.00,,FEW022,0.60,70.00,VWS V14.00,2013-06-18 22:19:00,
2013-06-18 18:24:00,81.8,72.7,29.87,West,263,4.0,10.0,74,0.00,,FEW022,0.60,109.00,VWS V14.00,2013-06-18 22:24:00,
2013-06-18 18:29:00,81.6,72.1,29.87,WSW,250,8.0,10.0,73,0.00,,FEW022,0.60,70.00,VWS V14.00,2013-06-18 22:29:00,
2013-06-18 18:34:00,81.6,72.1,29.87,SW,223,2.0,10.0,73,0.00,,FEW022,0.60,84.00,VWS V14.00,2013-06-18 22:34:00,
2013-06-18 18:39:00,81.4,71.9,29.87,WSW,240,2.0,13.0,73,0.00,,FEW022,0.60,72.00,VWS V14.00,2013-06-18 22:39:00,
2013-06-18 18:44:00,81.2,71.7,29.87,WSW,254,3.0,11.0,73,0.00,,FEW022,0.60,63.00,VWS V14.00,2013-06-18 22:44:00,
2013-06-18 18:49:00,81.1,72.0,29.87,SSW,210,5.0,11.0,74,0.00,,FEW022,0.60,90.00,VWS V14.00,2013-06-18 22:49:00,
2013-06-18 18:54:00,80.9,71.8,29.87,SSW,210,7.0,14.0,74,0.00,,FEW022,0.60,60.00,VWS V14.00,2013-06-18 22:54:00,
2013-06-18 18:59:00,80.9,71.8,29.87,WSW,257,3.0,14.0,74,0.00,,FEW022,0.60,53.00,VWS V14.00,2013-06-18 22:59:00,
2013-06-18 19:04:00,80.7,71.7,29.87,WSW,251,3.0,10.0,74,0.00,,CLR,0.60,53.00,VWS V14.00,2013-06-18 23:04:00,
2013-06-18 19:09:00,80.5,71.5,29.87,SSW,213,0.0,11.0,74,0.00,,CLR,0.60,51.00,VWS V14.00,2013-06-18 23:09:00,
2013-06-18 19:14:00,80.5,71.5,29.87,WSW,244,2.0,10.0,74,0.00,,CLR,0.60,46.00,VWS V14.00,2013-06-18 23:14:00,
2013-06-18 19:19:00,80.5,71.8,29.88,SW,233,6.0,10.0,75,0.00,,CLR,0.60,33.00,VWS V14.00,2013-06-18 23:19:00,
2013-06-18 19:24:00,80.3,71.7,29.88,SW,216,2.0,13.0,75,0.00,,CLR,0.60,26.00,VWS V14.00,2013-06-18 23:24:00,
2013-06-18 19:29:00,80.3,71.7,29.88,WSW,257,1.0,13.0,75,0.00,,CLR,0.60,21.00,VWS V14.00,2013-06-18 23:29:00,
2013-06-18 19:34:00,80.1,71.9,29.89,SW,215,6.0,7.0,76,0.00,,CLR,0.60,18.00,VWS V14.00,2013-06-18 23:34:00,
2013-06-18 19:39:00,79.9,71.7,29.89,WSW,246,0.0,11.0,76,0.00,,CLR,0.60,16.00,VWS V14.00,2013-06-18 23:39:00,
2013-06-18 19:44:00,79.8,71.6,29.89,SW,226,0.0,7.0,76,0.00,,CLR,0.60,16.00,VWS V14.00,2013-06-18 23:44:00,
2013-06-18 19:49:00,79.8,71.9,29.89,SW,229,1.0,12.0,77,0.00,,CLR,0.60,16.00,VWS V14.00,2013-06-18 23:49:00,
2013-06-18 19:54:00,79.6,71.8,29.89,WSW,244,0.0,5.0,77,0.00,,CLR,0.60,16.00,VWS V14.00,2013-06-18 23:54:00,
2013-06-18 19:59:00,79.4,71.9,29.89,SW,227,6.0,7.0,78,0.00,,CLR,0.60,16.00,VWS V14.00,2013-06-18 23:59:00,
2013-06-18 20:04:00,79.4,71.9,29.89,SW,226,0.0,5.0,78,0.00,,CLR,0.60,16.00,VWS V14.00,2013-06-19 00:04:00,
2013-06-18 20:09:00,79.2,72.1,29.89,SW,223,3.0,5.0,79,0.00,,CLR,0.60,14.00,VWS V14.00,2013-06-19 00:09:00,
2013-06-18 20:14:00,79.0,71.9,29.89,SW,226,0.0,5.0,79,0.00,,CLR,0.60,12.00,VWS V14.00,2013-06-19 00:14:00,
2013-06-18 20:19:00,79.0,72.3,29.90,WSW,237,0.0,5.0,80,0.00,,CLR,0.60,11.00,VWS V14.00,2013-06-19 00:19:00,
2013-06-18 20:24:00,78.8,72.1,29.90,SW,224,0.0,2.0,80,0.00,,CLR,0.60,7.00,VWS V14.00,2013-06-19 00:24:00,
2013-06-18 20:29:00,78.8,72.5,29.90,SW,224,0.0,2.0,81,0.00,,CLR,0.60,0.00,VWS V14.00,2013-06-19 00:29:00,
2013-06-18 20:34:00,78.1,70.3,29.91,North,8,0.0,5.0,77,0.00,,CLR,0.60,0.00,VWS V14.00,2013-06-19 00:34:00,
2013-06-18 20:39:00,77.4,68.5,29.91,NNE,23,0.0,5.0,74,0.00,,CLR,0.60,0.00,VWS V14.00,2013-06-19 00:39:00,
2013-06-18 20:44:00,77.0,67.7,29.91,NE,54,0.0,0.0,73,0.00,,CLR,0.60,0.00,VWS V14.00,2013-06-19 00:44:00,
2013-06-18 20:49:00,76.5,67.2,29.91,South,182,0.0,0.0,73,0.00,,CLR,0.60,0.00,VWS V14.00,2013-06-19 00:49:00,
2013-06-18 20:54:00,76.1,67.2,29.91,SSW,200,0.0,3.0,74,0.00,,CLR,0.60,0.00,VWS V14.00,2013-06-19 00:54:00,
2013-06-18 20:59:00,76.0,67.1,29.91,SSW,203,0.0,3.0,74,0.00,,CLR,0.60,0.00,VWS V14.00,2013-06-19 00:59:00,
2013-06-18 21:04:00,75.6,66.7,29.90,SSW,203,0.0,0.0,74,0.00,,CLR,0.60,0.00,VWS V14.00,2013-06-19 01:04:00,
2013-06-18 21:09:00,75.4,65.8,29.90,SSW,202,0.0,2.0,72,0.00,,CLR,0.60,0.00,VWS V14.00,2013-06-19 01:09:00,
2013-06-18 21:14:00,75.3,65.7,29.90,SSW,202,2.0,2.0,72,0.00,,CLR,0.60,0.00,VWS V14.00,2013-06-19 01:14:00,
2013-06-18 21:19:00,75.1,65.9,29.90,SSW,202,0.0,2.0,73,0.00,,CLR,0.60,0.00,VWS V14.00,2013-06-19 01:19:00,
2013-06-18 21:24:00,74.9,66.1,29.90,SSW,202,0.0,1.0,74,0.00,,CLR,0.60,0.00,VWS V14.00,2013-06-19 01:24:00,
2013-06-18 21:29:00,74.7,65.9,29.90,SSW,202,0.0,1.0,74,0.00,,CLR,0.60,0.00,VWS V14.00,2013-06-19 01:29:00,
2013-06-18 21:34:00,74.7,66.3,29.89,SSW,202,1.0,1.0,75,0.00,,CLR,0.60,0.00,VWS V14.00,2013-06-19 01:34:00,
2013-06-18 21:40:00,74.6,66.2,29.89,SSW,206,0.0,1.0,75,0.00,,CLR,0.60,0.00,VWS V14.00,2013-06-19 01:40:00,
2013-06-18 21:45:00,74.6,66.5,29.90,SSW,206,0.0,0.0,76,0.00,,CLR,0.60,0.00,VWS V14.00,2013-06-19 01:45:00,
2013-06-18 21:50:00,74.6,66.9,29.90,SSW,206,0.0,0.0,77,0.00,,CLR,0.60,0.00,VWS V14.00,2013-06-19 01:50:00,
2013-06-18 21:55:00,74.4,66.7,29.90,SSW,206,0.0,0.0,77,0.00,,CLR,0.60,0.00,VWS V14.00,2013-06-19 01:55:00,
2013-06-18 22:00:00,74.2,66.5,29.90,SSW,206,0.0,0.0,77,0.00,,CLR,0.60,0.00,VWS V14.00,2013-06-19 02:00:00,
2013-06-18 22:05:00,74.2,66.9,29.90,SSW,206,0.0,0.0,78,0.00,,FEW095,0.60,0.00,VWS V14.00,2013-06-19 02:05:00,
2013-06-18 22:10:00,74.0,66.7,29.90,SSW,206,0.0,0.0,78,0.00,,FEW095,0.60,0.00,VWS V14.00,2013-06-19 02:10:00,
2013-06-18 22:15:00,73.9,67.0,29.90,SSW,206,0.0,0.0,79,0.00,,FEW095,0.60,0.00,VWS V14.00,2013-06-19 02:15:00,
2013-06-18 22:20:00,73.9,67.0,29.90,SSW,206,0.0,0.0,79,0.00,,FEW095,0.60,0.00,VWS V14.00,2013-06-19 02:20:00,
2013-06-18 22:25:00,73.7,67.2,29.90,SSW,206,0.0,0.0,80,0.00,,FEW095,0.60,0.00,VWS V14.00,2013-06-19 02:25:00,
2013-06-18 22:30:00,73.7,67.2,29.90,SSW,206,0.0,0.0,80,0.00,,FEW095,0.60,0.00,VWS V14.00,2013-06-19 02:30:00,
2013-06-18 22:35:00,73.5,67.3,29.90,SSW,206,0.0,0.0,81,0.00,,FEW095,0.60,0.00,VWS V14.00,2013-06-19 02:35:00,
2013-06-18 22:40:00,73.5,67.3,29.90,SSW,206,0.0,0.0,81,0.00,,FEW095,0.60,0.00,VWS V14.00,2013-06-19 02:40:00,
2013-06-18 22:45:00,73.3,67.5,29.91,SSW,206,0.0,0.0,82,0.00,,FEW095,0.60,0.00,VWS V14.00,2013-06-19 02:45:00,
2013-06-18 22:50:00,73.2,67.4,29.91,SSW,206,0.0,0.0,82,0.00,,FEW095,0.60,0.00,VWS V14.00,2013-06-19 02:50:00,
2013-06-18 22:55:00,73.2,67.4,29.91,SSW,206,0.0,0.0,82,0.00,,FEW095,0.60,0.00,VWS V14.00,2013-06-19 02:55:00,
2013-06-18 23:00:00,73.0,67.5,29.91,SSW,206,0.0,0.0,83,0.00,,FEW095,0.60,0.00,VWS V14.00,2013-06-19 03:00:00,
2013-06-18 23:05:00,73.0,67.5,29.91,SSW,206,0.0,0.0,83,0.00,,-RA,0.60,0.00,VWS V14.00,2013-06-19 03:05:00,
2013-06-18 23:10:00,72.8,67.3,29.91,SSW,206,0.0,0.0,83,0.00,,-RA,0.60,0.00,VWS V14.00,2013-06-19 03:10:00,
2013-06-18 23:15:00,72.8,67.3,29.92,SSW,206,0.0,0.0,83,0.00,,-RA,0.60,0.00,VWS V14.00,2013-06-19 03:15:00,
2013-06-18 23:20:00,72.7,67.2,29.92,SSW,206,0.0,0.0,83,0.00,,-RA,0.60,0.00,VWS V14.00,2013-06-19 03:20:00,
2013-06-18 23:25:00,72.7,67.2,29.92,SSW,206,0.0,0.0,83,0.00,,-RA,0.60,0.00,VWS V14.00,2013-06-19 03:25:00,
2013-06-18 23:30:00,72.5,67.4,29.92,SSW,206,0.0,0.0,84,0.00,,-RA,0.60,0.00,VWS V14.00,2013-06-19 03:30:00,
2013-06-18 23:35:00,72.5,67.4,29.92,SSW,206,0.0,0.0,84,0.00,,-RA,0.60,0.00,VWS V14.00,2013-06-19 03:35:00,
2013-06-18 23:40:00,72.5,67.4,29.92,SSW,206,0.0,0.0,84,0.00,,-RA,0.60,0.00,VWS V14.00,2013-06-19 03:40:00,
2013-06-18 23:45:00,72.3,67.2,29.92,SSW,206,0.0,0.0,84,0.00,,-RA,0.60,0.00,VWS V14.00,2013-06-19 03:45:00,
2013-06-18 23:50:00,72.3,67.5,29.92,SSW,206,0.0,0.0,85,0.00,,-RA,0.60,0.00,VWS V14.00,2013-06-19 03:50:00,
2013-06-18 23:55:00,72.1,67.3,29.92,SSW,206,0.0,0.0,85,0.00,,-RA,0.60,0.00,VWS V14.00,2013-06-19 03:55:00,